Location: Crescent
(42.8242°N, 73.7329°W)
Time: 12:33:32
(UTC+00:00)

Vanguard 3 - Pass Details

Date: 22 February 2026
Orbit: 507 x 3205 km, 33.4° (Epoch: 8 March)

Event Time Altitude Azimuth Distance (km) Brightness Sun altitude
Rises 23:07:44 0° 266° (W) 5,045 13.9 -6.6°
Reaches altitude 10° 23:12:06 10° 259° (WSW) 3,561 12.2 -7.4°
Maximum altitude 23:19:14 31° 201° (SSW) 1,643 9.0 -8.7°
Drops below altitude 10° 23:23:51 10° 139° (SE) 2,251 9.1 -9.5°
Enters shadow 23:25:20 - 130° (SE) 2,730 9.4 -9.8°
